Total_Precipitation_Accumulation
0.00 0.02 0.08 0.22 0.50 0.87 1.02 0.69 0.52 0.49 0.54 0.53 0.47 0.43 0.46 0.42 0.51 0.78 0.58 0.36 0.15 0.05 0.03 0.08 0.14 0.12 0.11 0.11 0.10 0.10 0.10 0.09 0.09 0.08 0.06 0.05 0.05 0.04 0.04 0.04 0.04 0.04 0.05 0.06 0.05 0.05 0.05 0.06 0.06
0.01 0.03 0.10 0.26 0.58 0.96 1.03 0.60 0.34 0.44 0.53 0.66 0.64 0.49 0.39 0.38 0.39 0.31 0.28 0.40 0.13 0.06 0.05 0.05 0.11 0.12 0.10 0.09 0.10 0.10 0.10 0.09 0.08 0.06 0.05 0.05 0.04 0.05 0.05 0.05 0.04 0.05 0.06 0.06 0.05 0.05 0.05 0.05 0.06
0.01 0.05 0.13 0.23 0.46 0.64 0.75 0.47 0.35 0.31 0.48 0.72 0.69 0.45 0.42 0.45 0.37 0.25 0.24 0.33 0.15 0.09 0.06 0.06 0.10 0.10 0.09 0.09 0.10 0.10 0.10 0.08 0.07 0.06 0.05 0.05 0.05 0.06 0.07 0.07 0.06 0.06 0.08 0.08 0.08 0.06 0.06 0.05 0.07
0.01 0.08 0.14 0.20 0.19 0.21 0.34 0.40 0.43 0.41 0.60 0.73 0.59 0.48 0.45 0.45 0.40 0.26 0.23 0.34 0.19 0.14 0.08 0.09 0.12 0.12 0.11 0.10 0.10 0.11 0.11 0.10 0.08 0.07 0.06 0.05 0.06 0.07 0.08 0.08 0.09 0.09 0.10 0.11 0.10 0.08 0.08 0.08 0.09
0.01 0.06 0.12 0.13 0.13 0.12 0.17 0.24 0.32 0.49 0.66 0.76 0.66 0.60 0.59 0.43 0.36 0.29 0.22 0.33 0.24 0.19 0.15 0.15 0.18 0.16 0.13 0.12 0.12 0.12 0.11 0.11 0.09 0.08 0.07 0.07 0.07 0.08 0.09 0.08 0.08 0.10 0.13 0.14 0.15 0.14 0.13 0.12 0.12
0.01 0.04 0.07 0.05 0.05 0.07 0.13 0.19 0.35 0.54 0.56 0.63 0.73 0.77 0.65 0.46 0.40 0.33 0.31 0.40 0.32 0.22 0.17 0.21 0.21 0.19 0.16 0.15 0.16 0.15 0.13 0.12 0.11 0.10 0.11 0.11 0.12 0.12 0.11 0.10 0.09 0.10 0.12 0.15 0.18 0.20 0.18 0.17 0.17
0.01 0.02 0.01 0.01 0.02 0.05 0.14 0.26 0.32 0.44 0.50 0.70 0.75 0.74 0.65 0.61 0.52 0.42 0.49 0.72 0.62 0.43 0.28 0.25 0.22 0.21 0.19 0.21 0.22 0.21 0.18 0.17 0.16 0.14 0.14 0.15 0.16 0.17 0.18 0.19 0.17 0.16 0.18 0.19 0.20 0.22 0.27 0.26 0.24
0.00 0.00 0.00 0.00 0.01 0.06 0.13 0.21 0.30 0.43 0.55 0.61 0.68 0.76 0.67 0.65 0.61 0.65 0.79 1.08 1.09 0.89 0.59 0.34 0.28 0.29 0.29 0.26 0.26 0.26 0.22 0.21 0.21 0.20 0.20 0.22 0.26 0.30 0.34 0.32 0.30 0.31 0.33 0.32 0.30 0.29 0.33 0.40 0.39
0.00 0.00 0.00 0.00 0.01 0.08 0.17 0.22 0.27 0.31 0.40 0.59 0.76 0.85 0.73 0.64 0.66 0.83 0.95 1.12 1.13 0.93 0.74 0.56 0.47 0.40 0.38 0.39 0.33 0.35 0.32 0.31 0.31 0.38 0.40 0.42 0.47 0.53 0.60 0.57 0.58 0.58 0.60 0.64 0.64 0.60 0.64 0.67 0.60
0.00 0.00 0.00 0.00 0.00 0.03 0.10 0.20 0.25 0.36 0.54 0.98 1.25 1.09 0.87 0.78 0.83 0.96 1.03 0.98 1.03 0.96 0.86 0.87 0.71 0.61 0.61 0.61 0.61 0.65 0.62 0.66 0.62 0.77 0.83 0.86 0.91 0.75 0.62 0.82 0.97 0.94 1.04 1.10 1.19 1.37 1.29 1.11 0.88
0.00 0.00 0.00 0.00 0.00 0.01 0.05 0.12 0.23 0.40 0.75 1.27 1.48 1.16 1.00 0.95 0.96 1.00 1.18 1.16 1.22 1.16 1.05 1.12 0.96 0.89 0.92 0.89 0.85 0.92 1.02 1.11 1.10 1.15 1.24 1.39 1.36 1.10 0.93 1.15 1.40 1.40 1.45 1.47 1.75 1.96 1.58 1.45 1.41
0.00 0.00 0.00 0.00 0.00 0.01 0.04 0.11 0.28 0.53 0.92 1.21 1.10 0.91 0.94 1.11 1.13 1.19 1.35 1.53 1.54 1.51 1.50 1.39 1.26 1.25 1.27 1.19 1.11 1.01 0.97 1.03 1.10 1.19 1.26 1.60 1.65 1.59 1.52 1.56 1.50 1.67 1.75 1.97 2.03 2.03 1.85 1.82 1.73
0.00 0.00 0.00 0.00 0.00 0.02 0.06 0.13 0.32 0.62 0.84 0.89 0.75 0.79 1.04 1.27 1.33 1.56 1.77 1.87 1.86 1.98 2.15 2.03 1.88 1.62 1.45 1.42 1.22 1.07 1.01 0.95 0.92 1.08 1.23 1.55 1.76 1.79 1.87 1.60 1.51 1.48 1.67 1.92 1.88 1.76 1.82 1.93 1.95
0.00 0.00 0.01 0.01 0.02 0.04 0.07 0.14 0.30 0.49 0.62 0.64 0.69 0.90 1.07 1.36 1.47 1.71 2.05 2.32 2.45 2.57 2.73 2.62 2.45 2.12 1.82 1.60 1.43 1.34 1.20 1.03 0.87 1.00 1.06 1.44 1.74 1.72 1.60 1.59 1.58 1.49 1.64 1.70 1.77 1.81 1.97 2.02 2.13
0.00 0.01 0.06 0.07 0.05 0.06 0.07 0.18 0.37 0.56 0.68 0.61 0.75 0.94 1.21 1.49 1.73 1.98 2.17 2.54 2.85 3.10 3.21 3.12 3.02 2.76 2.43 2.12 1.85 1.55 1.38 1.17 1.07 1.02 0.99 1.28 1.55 1.62 1.63 1.55 1.43 1.47 1.57 1.67 1.72 1.75 1.83 1.74 1.79
0.02 0.05 0.15 0.16 0.10 0.10 0.11 0.38 0.67 0.67 0.66 0.69 0.80 1.08 1.36 1.63 1.98 2.07 2.23 2.51 2.85 3.27 3.61 3.60 3.13 2.88 2.66 2.37 2.06 1.84 1.71 1.56 1.37 1.08 0.98 1.03 1.22 1.36 1.41 1.29 1.28 1.38 1.29 1.30 1.35 1.34 1.36 1.39 1.51
0.05 0.09 0.15 0.24 0.15 0.12 0.22 0.69 0.98 0.74 0.57 0.67 0.87 1.09 1.46 1.74 2.08 2.10 2.17 2.33 2.73 3.41 4.06 3.94 3.42 2.94 2.63 2.45 2.26 2.08 1.90 1.61 1.37 1.16 1.05 0.93 0.87 0.84 0.90 0.87 0.90 0.95 0.96 0.96 0.93 1.08 1.15 1.21 1.31
0.04 0.10 0.22 0.34 0.21 0.19 0.29 0.65 0.69 0.60 0.72 0.71 0.76 0.94 1.23 1.37 1.61 1.80 2.00 2.37 3.00 3.89 4.48 4.29 3.64 3.11 2.72 2.48 2.24 1.94 1.69 1.46 1.23 1.11 1.02 0.81 0.73 0.67 0.65 0.63 0.64 0.61 0.65 0.71 0.75 0.78 0.87 0.89 0.94
0.04 0.09 0.22 0.26 0.19 0.28 0.35 0.55 0.64 0.72 0.86 0.86 0.74 0.77 1.04 1.22 1.44 1.70 2.21 2.95 3.83 4.52 4.61 4.06 3.48 3.08 2.64 2.22 1.67 1.27 1.04 0.93 0.84 0.70 0.60 0.54 0.49 0.49 0.51 0.46 0.45 0.44 0.43 0.44 0.47 0.54 0.59 0.61 0.70
0.06 0.08 0.19 0.26 0.18 0.21 0.35 0.65 0.90 0.85 0.78 0.74 0.76 0.69 0.84 1.20 1.61 2.12 3.03 3.59 3.66 3.59 3.13 2.66 2.36 2.09 1.72 1.34 1.03 0.85 0.71 0.59 0.51 0.46 0.44 0.40 0.35 0.34 0.33 0.33 0.35 0.34 0.32 0.33 0.35 0.39 0.39 0.41 0.52
0.10 0.10 0.18 0.25 0.15 0.16 0.35 0.78 1.02 0.98 0.76 0.63 0.61 0.55 0.76 1.17 1.74 2.45 2.96 2.97 2.48 2.04 1.80 1.66 1.57 1.23 1.04 0.90 0.76 0.66 0.53 0.41 0.36 0.35 0.34 0.29 0.24 0.24 0.25 0.25 0.26 0.29 0.30 0.31 0.34 0.34 0.34 0.33 0.34
0.09 0.06 0.06 0.09 0.15 0.33 0.51 0.99 1.10 0.88 0.79 0.62 0.58 0.56 0.66 0.90 1.21 1.58 1.77 1.60 1.50 1.46 1.42 1.45 1.36 1.02 0.85 0.72 0.60 0.48 0.39 0.33 0.31 0.28 0.27 0.24 0.20 0.19 0.18 0.18 0.17 0.19 0.24 0.30 0.30 0.34 0.34 0.32 0.26
0.04 0.03 0.04 0.11 0.22 0.41 0.59 0.82 0.90 0.68 0.77 0.58 0.43 0.42 0.44 0.59 0.68 0.73 0.78 0.83 0.88 0.93 1.05 1.17 1.20 1.04 0.82 0.70 0.61 0.52 0.41 0.35 0.31 0.29 0.27 0.26 0.23 0.19 0.19 0.19 0.17 0.16 0.16 0.21 0.23 0.31 0.35 0.36 0.31
0.03 0.05 0.12 0.23 0.39 0.85 0.80 0.79 0.95 0.81 0.81 0.59 0.40 0.32 0.37 0.49 0.55 0.54 0.50 0.54 0.63 0.70 0.76 0.87 1.02 1.06 0.92 0.79 0.68 0.60 0.49 0.42 0.34 0.30 0.27 0.24 0.20 0.19 0.18 0.19 0.19 0.19 0.18 0.15 0.16 0.20 0.27 0.34 0.37
0.05 0.07 0.24 0.56 0.92 1.06 0.65 0.72 0.94 0.69 0.60 0.43 0.23 0.17 0.29 0.46 0.55 0.53 0.45 0.39 0.39 0.46 0.52 0.52 0.58 0.67 0.69 0.63 0.60 0.59 0.55 0.45 0.35 0.28 0.22 0.21 0.18 0.17 0.16 0.17 0.18 0.19 0.20 0.19 0.17 0.16 0.19 0.26 0.32
0.05 0.04 0.10 0.20 0.28 0.43 0.54 0.85 0.96 0.66 0.41 0.19 0.09 0.08 0.21 0.33 0.34 0.32 0.29 0.24 0.18 0.20 0.28 0.31 0.34 0.38 0.41 0.42 0.41 0.40 0.42 0.32 0.26 0.29 0.22 0.20 0.22 0.23 0.22 0.17 0.16 0.17 0.18 0.19 0.19 0.17 0.17 0.21 0.26
0.05 0.03 0.04 0.07 0.11 0.28 0.58 0.82 0.71 0.53 0.34 0.17 0.09 0.06 0.07 0.11 0.12 0.14 0.16 0.15 0.13 0.13 0.17 0.22 0.29 0.32 0.32 0.35 0.34 0.29 0.31 0.29 0.26 0.24 0.21 0.18 0.24 0.25 0.23 0.19 0.16 0.15 0.17 0.18 0.19 0.19 0.21 0.23 0.26
0.05 0.04 0.04 0.05 0.10 0.20 0.40 0.72 0.78 0.57 0.37 0.17 0.10 0.08 0.07 0.08 0.08 0.09 0.09 0.09 0.09 0.09 0.13 0.19 0.27 0.31 0.31 0.30 0.29 0.24 0.28 0.29 0.27 0.22 0.22 0.22 0.21 0.21 0.19 0.18 0.14 0.13 0.14 0.16 0.18 0.19 0.23 0.27 0.32
0.07 0.06 0.06 0.05 0.07 0.12 0.26 0.41 0.35 0.27 0.19 0.12 0.08 0.05 0.05 0.05 0.05 0.05 0.05 0.06 0.06 0.07 0.09 0.12 0.18 0.22 0.24 0.25 0.25 0.22 0.22 0.23 0.24 0.24 0.24 0.24 0.22 0.20 0.18 0.17 0.15 0.14 0.14 0.16 0.19 0.21 0.22 0.26 0.32
0.08 0.09 0.09 0.08 0.07 0.08 0.13 0.25 0.18 0.15 0.15 0.10 0.06 0.04 0.03 0.02 0.02 0.03 0.04 0.06 0.06 0.06 0.07 0.10 0.13 0.14 0.17 0.19 0.18 0.17 0.18 0.17 0.18 0.19 0.20 0.21 0.20 0.18 0.17 0.17 0.15 0.13 0.13 0.17 0.21 0.23 0.24 0.26 0.30